Weather History for KCKN - October, 2012

Change the Weather History Date:

Thursday, October 4, 2012

  Actual Average Record
Temperature  
Mean Temperature 37 °F -  
Max Temperature 42 °F 58 °F 86 °F (2011)
Min Temperature 32 °F 36 °F 21 °F (2000)
Degree Days  
Heating Degree Days 28    
Moisture  
Dew Point 34 °F    
Average Humidity 98    
Maximum Humidity 100    
Minimum Humidity 87    
Precipitation  
Precipitation 0.57 in - - ()
Sea Level Pressure  
Sea Level Pressure 30.00 in    
Wind  
Wind Speed 24 mph (NNW)    
Max Wind Speed 39 mph    
Max Gust Speed 48 mph    
Visibility 5 miles    
Events Rain , Snow    
Averages and records for this station are not official NWS values.
T = Trace of Precipitation, MM = Missing Value Source: NWS Daily Summary

Daily Weather History Graph

Daily Weather History Graph

Search for Another Location

Airport or City:

Trip Planner

Search our weather history database for the weather conditions in past years. The results will help you decide how hot, cold, wet, or windy it might be!

Date:

Astronomy

Oct. 04, 2012 Rise Set
Actual Time 7:30 AM CDT 6:58 PM CDT
Civil Twilight 6:59 AM CDT 7:29 PM CDT
Nautical Twilight 6:23 AM CDT 8:05 PM CDT
Astronomical Twilight 5:47 AM CDT 8:41 PM CDT
Moon 9:14 PM CDT (10/4) 12:08 PM CDT (10/4)
Length of Visible Light 12h 29m
Length of Day
11h 28m
Waning Gibbous, 82% of the Moon is Illuminated
Oct 4
Waning Gibbous
Oct 8
Last Quarter
Oct 15
New
Oct 21
First Quarter
Oct 29
Full

Hourly Weather History & Observations

Time (CDT) Temp. Windchill Dew Point Humidity Pressure Visibility Wind Dir Wind Speed Gust Speed Precip Events Conditions
12:14 AM 42.8 °F 34.5 °F 39.2 °F 87% 30.00 in 10.0 mi North 18.4 mph 26.5 mph N/A   Overcast
12:35 AM 42.8 °F 33.8 °F 39.2 °F 87% 29.98 in 10.0 mi North 21.9 mph 27.6 mph N/A   Overcast
12:55 AM 42.8 °F 34.0 °F 39.2 °F 87% 29.96 in 10.0 mi NNE 20.7 mph 29.9 mph N/A   Overcast
1:14 AM 42.8 °F 34.0 °F 39.2 °F 87% 29.95 in 10.0 mi NNE 20.7 mph 28.8 mph N/A   Overcast
1:35 AM 41.0 °F 30.9 °F 39.2 °F 93% 29.94 in 10.0 mi North 24.2 mph 28.8 mph N/A   Overcast
1:55 AM 41.0 °F 31.6 °F 39.2 °F 93% 29.93 in 10.0 mi NNE 20.7 mph 31.1 mph N/A Rain Light Rain
2:14 AM 39.2 °F 29.6 °F 39.2 °F 100% 29.93 in 7.0 mi NNE 19.6 mph 27.6 mph 0.01 in   Overcast
2:35 AM 39.2 °F 29.0 °F 39.2 °F 100% 29.92 in 10.0 mi North 21.9 mph 31.1 mph 0.02 in   Overcast
2:55 AM 39.2 °F 28.7 °F 39.2 °F 100% 29.92 in 7.0 mi North 23.0 mph 27.6 mph N/A   Overcast
3:14 AM 39.2 °F 28.5 °F 39.2 °F 100% 29.90 in 7.0 mi North 24.2 mph 33.4 mph 0.02 in   Overcast
3:35 AM 37.4 °F 26.9 °F 37.4 °F 100% 29.91 in 7.0 mi North 20.7 mph 32.2 mph 0.04 in   Overcast
3:55 AM 37.4 °F 25.2 °F 35.6 °F 93% 29.91 in 5.0 mi North 28.8 mph 35.7 mph 0.01 in   Overcast
4:14 AM 35.6 °F 23.0 °F 35.6 °F 100% 29.91 in 4.0 mi North 27.6 mph 34.5 mph 0.06 in   Overcast
4:35 AM 35.6 °F 22.3 °F 33.8 °F 93% 29.91 in 3.0 mi North 31.1 mph 39.1 mph 0.11 in   Overcast
4:55 AM 33.8 °F 20.1 °F 33.8 °F 100% 29.90 in 4.0 mi North 29.9 mph 38.0 mph 0.01 in   Overcast
5:14 AM 33.8 °F 19.9 °F 33.8 °F 100% 29.90 in 5.0 mi North 31.1 mph 39.1 mph 0.03 in   Overcast
5:35 AM 33.8 °F 19.2 °F 33.8 °F 100% 29.91 in 4.0 mi North 34.5 mph 41.4 mph 0.06 in Snow Light Snow
5:55 AM 33.8 °F 18.5 °F 33.8 °F 100% 29.91 in 1.8 mi NNW 39.1 mph 48.3 mph 0.01 in Snow Light Snow
6:14 AM 33.8 °F 19.2 °F 33.8 °F 100% 29.92 in 1.8 mi NNW 34.5 mph 41.4 mph 0.02 in   Overcast
6:35 AM 33.8 °F 19.9 °F 32.0 °F 93% 29.93 in 0.8 mi NNW 31.1 mph 42.6 mph 0.05 in   Overcast
6:54 AM 33.8 °F 19.2 °F 32.0 °F 93% 29.93 in 0.8 mi NNW 34.5 mph 42.6 mph N/A Snow Snow
7:15 AM 33.8 °F 19.9 °F 32.0 °F 93% 29.93 in 0.8 mi NNW 31.1 mph 41.4 mph 0.02 in Snow Snow
7:35 AM 33.8 °F 19.0 °F 32.0 °F 93% 29.93 in 0.8 mi NNW 35.7 mph 42.6 mph 0.03 in Snow Snow
7:54 AM 32.0 °F 17.2 °F 32.0 °F 100% 29.92 in 0.2 mi North 32.2 mph 39.1 mph N/A Snow Snow
8:15 AM 33.8 °F 19.9 °F 32.0 °F 93% 29.92 in 0.2 mi North 31.1 mph 38.0 mph 0.02 in Snow Snow
8:34 AM 33.8 °F 20.5 °F 32.0 °F 93% 29.91 in 0.2 mi North 27.6 mph - 0.03 in Snow Snow
8:55 AM 33.8 °F 20.3 °F 32.0 °F 93% 29.91 in 0.2 mi NNW 28.8 mph 32.2 mph 0.01 in Snow Snow
9:14 AM 33.8 °F 21.0 °F 32.0 °F 93% 29.92 in 0.2 mi NNW 25.3 mph - 0.03 in Snow Snow
9:35 AM 32.0 °F 19.5 °F 32.0 °F 100% 29.93 in 0.2 mi NNW 21.9 mph 29.9 mph 0.06 in Snow Snow
9:54 AM 33.8 °F 22.5 °F 32.0 °F 93% 29.94 in 0.2 mi NNW 19.6 mph 27.6 mph 0.01 in Snow Snow
10:14 AM 33.8 °F 23.5 °F 32.0 °F 93% 29.95 in 0.5 mi NNW 16.1 mph 23.0 mph 0.03 in Snow Snow
10:34 AM 33.8 °F 25.3 °F 32.0 °F 93% 29.95 in 0.8 mi NNW 11.5 mph 18.4 mph 0.05 in Snow Light Snow
10:55 AM 33.8 °F 25.3 °F 32.0 °F 93% 29.95 in 0.8 mi NNW 11.5 mph 19.6 mph 0.01 in Snow Light Snow
11:15 AM 33.8 °F 23.9 °F 33.8 °F 100% 29.96 in 0.8 mi NNW 15.0 mph 23.0 mph 0.02 in Snow Light Snow
11:35 AM 33.8 °F 23.9 °F 33.8 °F 100% 29.97 in 0.8 mi NNW 15.0 mph 21.9 mph 0.03 in Snow Light Snow
11:54 AM 33.8 °F 23.2 °F 33.8 °F 100% 29.98 in 0.8 mi NNW 17.3 mph 24.2 mph N/A Snow Light Snow
12:15 PM 33.8 °F 22.8 °F 33.8 °F 100% 29.98 in 1.0 mi NW 18.4 mph 25.3 mph 0.01 in Snow Light Snow
12:34 PM 33.8 °F 21.6 °F 33.8 °F 100% 29.99 in 1.0 mi NW 23.0 mph 29.9 mph 0.02 in Snow Light Snow
12:55 PM 33.8 °F 20.3 °F 33.8 °F 100% 30.00 in 1.5 mi NW 28.8 mph 34.5 mph N/A Snow Light Snow
1:34 PM 33.8 °F 20.1 °F 33.8 °F 100% 30.01 in 1.8 mi NNW 29.9 mph 38.0 mph N/A   Unknown
1:55 PM 33.8 °F 20.5 °F 33.8 °F 100% 30.01 in 2.5 mi NNW 27.6 mph 38.0 mph N/A   Unknown
2:15 PM 33.8 °F 19.9 °F 33.8 °F 100% 30.02 in 3.0 mi NW 31.1 mph 40.3 mph N/A   Unknown
2:34 PM 33.8 °F 19.9 °F 33.8 °F 100% 30.03 in 3.0 mi NW 31.1 mph 40.3 mph N/A   Unknown
2:55 PM 33.8 °F 20.1 °F 33.8 °F 100% 30.03 in 3.0 mi NW 29.9 mph 39.1 mph 0.01 in   Unknown
3:14 PM 33.8 °F 20.5 °F 33.8 °F 100% - 5.0 mi NW 27.6 mph 38.0 mph 0.01 in   Clear
3:34 PM 33.8 °F 21.0 °F 33.8 °F 100% - 10.0 mi NNW 25.3 mph 36.8 mph 0.01 in   Clear
3:55 PM 33.8 °F 21.0 °F 33.8 °F 100% 30.06 in 10.0 mi NW 25.3 mph 38.0 mph N/A   Clear
4:14 PM 33.8 °F 21.0 °F 33.8 °F 100% 30.04 in 10.0 mi NNW 25.3 mph 35.7 mph N/A   Clear
4:35 PM 33.8 °F 21.3 °F 33.8 °F 100% - 7.0 mi NNW 24.2 mph 34.5 mph N/A   Clear
4:55 PM 33.8 °F 21.6 °F 33.8 °F 100% 30.08 in 7.0 mi NNW 23.0 mph 33.4 mph N/A   Clear
5:14 PM 33.8 °F 22.2 °F 33.8 °F 100% 30.09 in 4.0 mi NNW 20.7 mph 29.9 mph N/A   Clear
5:35 PM 33.8 °F 22.5 °F 33.8 °F 100% 30.10 in 2.0 mi NNW 19.6 mph - N/A   Mostly Cloudy
5:55 PM 33.8 °F 24.3 °F 33.8 °F 100% 30.10 in 2.0 mi NNW 13.8 mph - N/A   Overcast
6:14 PM 33.8 °F 25.3 °F 33.8 °F 100% 30.10 in 2.0 mi NNW 11.5 mph - 0.02 in Snow Snow
6:35 PM 33.8 °F 23.9 °F 33.8 °F 100% 30.11 in 1.5 mi NNW 15.0 mph - 0.04 in   Overcast
6:55 PM 33.8 °F 24.8 °F 33.8 °F 100% 30.11 in 2.0 mi NNW 12.7 mph - 0.01 in   Overcast
7:14 PM 33.8 °F 21.9 °F 33.8 °F 100% 30.11 in 7.0 mi NNW 21.9 mph 28.8 mph 0.01 in   Mostly Cloudy
7:35 PM 33.8 °F 21.3 °F 33.8 °F 100% 30.11 in 7.0 mi NW 24.2 mph 35.7 mph 0.01 in   Mostly Cloudy
7:55 PM 33.8 °F 20.8 °F 33.8 °F 100% 30.11 in 5.0 mi NW 26.5 mph 31.1 mph N/A Snow Light Snow
9:14 PM 33.8 °F 21.3 °F 33.8 °F 100% 30.11 in 10.0 mi NW 24.2 mph 33.4 mph N/A   Mostly Cloudy
9:35 PM 33.8 °F 21.0 °F 33.8 °F 100% 30.11 in 10.0 mi NW 25.3 mph 32.2 mph N/A   Overcast
9:54 PM 33.8 °F 20.5 °F 33.8 °F 100% 30.12 in 10.0 mi NW 27.6 mph 34.5 mph N/A   Overcast
10:14 PM 33.8 °F 20.8 °F 33.8 °F 100% 30.12 in 10.0 mi NW 26.5 mph 34.5 mph N/A   Overcast
10:35 PM 33.8 °F 20.8 °F 33.8 °F 100% 30.12 in 10.0 mi NW 26.5 mph 32.2 mph N/A   Overcast
10:54 PM 33.8 °F 20.5 °F 33.8 °F 100% 30.12 in 10.0 mi NW 27.6 mph 32.2 mph N/A   Overcast
11:14 PM 33.8 °F 21.3 °F 33.8 °F 100% 30.12 in 10.0 mi NW 24.2 mph 32.2 mph N/A   Overcast
11:35 PM 33.8 °F 20.8 °F 33.8 °F 100% 30.13 in 10.0 mi NW 26.5 mph 39.1 mph N/A   Overcast
11:54 PM 33.8 °F 20.3 °F 33.8 °F 100% 30.13 in 10.0 mi NW 28.8 mph 34.5 mph N/A   Overcast